Dewpoint
41 41 41 41 40 40 40 40 41 41 41 41 42 43 43 43 43 43 43 42 41 41 42 43 43 44 46 46 47 47 47 47 46 46 46 46 45 45 45 45 44 44 44 44 44 43 43 43 43 43 42 42 42 41 41 41 41 41 41 41 41 41 41 41 41 41 41 41 40 40 40 40 39 39 39 39 39 39 39 39 39 39 40 40 40 40
41 41 41 41 41 40 40 40 41 41 41 41 41 42 42 42 42 42 42 42 41 41 41 42 43 43 44 45 46 46 46 46 46 46 45 45 45 44 44 44 44 43 43 43 43 43 43 42 42 42 41 41 41 41 40 40 41 41 41 40 40 40 40 40 40 40 39 39 39 38 38 38 37 37 37 37 37 38 38 38 38 39 39 39 39 40
41 41 41 41 41 40 40 40 41 41 41 41 41 41 41 41 41 41 41 41 41 41 41 41 41 41 41 43 45 46 46 46 46 45 44 44 44 44 43 43 43 43 43 42 42 42 42 42 42 41 41 41 41 40 40 40 39 39 39 39 39 39 39 38 38 38 38 37 37 37 36 36 36 36 36 36 37 37 37 37 37 37 38 38 38 39
40 40 40 40 40 40 40 40 41 41 41 41 41 41 41 40 40 40 40 40 40 40 40 39 38 38 38 40 42 45 45 45 44 44 43 43 43 43 43 43 42 42 42 42 42 42 42 41 41 41 41 41 41 40 39 39 38 38 38 38 37 37 37 37 37 37 36 36 36 35 35 35 34 34 34 35 35 35 36 36 36 37 37 37 37 37
40 40 40 40 39 39 39 40 41 41 41 41 40 40 40 39 39 39 39 38 38 38 38 37 36 36 36 37 41 43 44 43 43 43 42 42 42 42 42 42 42 42 42 41 41 41 41 41 41 41 41 41 41 40 39 38 38 37 37 37 37 36 36 36 36 36 35 35 35 35 34 34 34 34 34 34 34 34 34 35 35 36 36 36 37 37
39 40 40 39 39 38 39 40 40 41 40 39 39 39 39 39 38 37 37 37 36 36 35 35 33 32 33 36 39 42 42 42 42 41 41 41 41 41 41 41 41 41 41 41 41 41 41 41 41 41 41 41 40 39 38 37 37 37 36 36 36 35 35 35 35 35 35 35 34 34 34 34 34 34 34 34 34 33 34 34 34 35 36 36 36 36
39 39 39 38 38 38 38 39 40 40 38 38 38 37 37 37 36 35 35 34 34 33 34 34 32 31 30 33 37 39 39 40 41 41 41 41 41 41 41 41 41 41 41 41 41 41 41 41 41 41 41 40 39 38 37 37 36 36 35 35 35 35 35 35 34 34 34 34 34 34 34 34 34 34 34 34 34 34 34 34 34 35 35 36 36 36
38 38 38 37 37 37 37 38 39 39 38 37 36 36 36 35 34 33 32 32 31 31 32 33 32 31 28 28 30 33 35 35 37 38 39 39 40 40 40 40 40 40 40 40 40 40 40 40 40 39 39 39 38 37 37 36 36 35 35 34 34 34 34 34 34 34 34 34 34 34 34 34 34 34 34 34 34 34 34 34 34 34 35 35 36 36
38 37 37 37 37 37 37 37 37 37 37 36 35 35 35 35 34 33 33 32 30 29 29 31 32 32 29 26 26 29 33 34 34 34 35 35 36 37 38 40 40 39 39 39 38 38 38 38 38 38 37 37 37 37 36 35 35 35 34 34 34 34 34 34 34 33 33 33 33 33 33 33 34 34 34 34 34 34 34 34 34 34 35 35 36 36
37 37 37 37 36 36 35 36 36 35 34 34 33 33 33 33 34 34 34 33 31 29 28 28 30 31 30 27 26 27 31 34 36 37 37 36 36 37 38 39 39 38 37 37 37 37 37 37 37 36 36 36 36 36 35 35 35 34 34 34 34 33 33 33 33 33 33 33 33 33 33 33 33 33 33 33 34 34 34 34 34 34 34 35 35 35
37 36 36 36 36 35 35 34 33 33 32 33 33 32 31 31 32 33 34 33 32 29 28 27 27 28 29 28 26 26 27 29 31 33 35 35 36 37 37 37 37 36 36 36 35 35 35 35 35 35 35 35 35 35 35 35 34 34 34 33 33 33 32 32 32 32 32 32 32 32 32 32 32 32 33 33 33 33 33 33 33 33 34 34 34 35
36 36 35 35 36 36 35 33 32 32 33 34 34 33 32 29 29 30 32 32 31 29 27 25 24 24 24 24 25 25 24 25 26 27 27 28 30 31 32 32 33 33 33 34 35 35 35 35 35 35 35 35 35 34 34 35 35 34 33 33 33 32 32 32 32 32 32 31 31 31 32 32 32 32 33 33 33 33 33 33 33 33 33 33 34 34
35 35 34 34 34 35 34 33 33 33 34 34 34 33 32 29 27 26 28 29 28 27 24 24 24 23 22 22 23 23 23 24 24 23 24 24 24 24 25 26 27 27 27 28 28 31 35 35 35 35 35 35 35 34 33 34 34 33 32 32 32 32 32 32 31 31 30 30 31 31 32 32 32 32 32 32 32 32 32 33 33 33 33 33 33 33
34 34 34 34 34 34 33 33 33 33 33 33 32 30 28 26 24 24 25 26 25 23 22 23 23 23 22 21 21 22 22 23 23 23 23 23 21 20 22 23 24 23 23 23 24 27 33 32 31 30 34 35 34 34 34 34 33 32 32 32 31 31 31 31 30 30 30 30 31 32 32 32 32 32 32 32 32 32 32 32 32 32 32 32 32 32
34 34 34 34 33 33 32 32 32 32 31 29 27 25 24 23 23 24 26 26 23 22 21 22 22 23 23 22 21 20 20 22 23 23 23 22 20 19 19 22 23 23 21 23 23 24 29 28 26 25 27 29 30 31 32 34 32 30 30 30 30 30 30 30 30 30 30 31 31 32 32 32 32 32 32 32 32 32 32 32 32 32 32 32 32 32
33 34 33 33 32 32 31 30 30 29 28 25 24 24 24 24 23 23 26 24 22 21 22 23 23 23 23 23 22 21 20 21 22 22 22 22 21 19 17 21 23 23 22 23 23 23 23 22 22 22 23 28 30 30 28 30 29 29 29 29 30 30 30 30 30 30 31 31 32 32 32 32 32 32 32 32 32 32 32 32 32 32 32 32 32 32
32 32 32 32 31 30 28 28 27 26 24 23 22 22 23 23 22 22 23 22 22 21 22 22 22 22 22 23 23 23 20 20 20 20 21 22 22 20 18 21 23 23 23 23 22 22 22 22 22 22 22 29 31 29 27 27 27 28 28 29 29 30 30 30 30 31 31 31 32 32 32 32 32 32 32 32 32 32 32 32 32 32 32 32 32 33
30 30 30 31 30 29 26 25 23 22 22 22 21 20 19 19 19 19 20 21 22 22 20 20 20 20 19 21 21 21 19 20 20 20 20 21 21 19 18 19 22 23 21 22 22 21 21 20 19 20 22 28 30 28 26 26 27 28 28 29 29 30 30 31 31 31 31 32 32 32 32 32 32 32 32 32 32 32 32 32 32 32 33 33 33 33
29 28 28 29 28 26 24 24 24 23 24 23 23 22 20 19 18 18 18 19 20 20 19 19 18 17 17 19 20 20 18 19 19 20 20 21 21 19 17 20 22 22 20 22 22 22 20 19 22 27 32 30 29 28 27 27 28 28 29 29 30 30 31 31 31 32 32 32 32 32 32 32 32 32 32 32 32 32 32 32 32 33 33 33 33 34
29 27 28 28 27 25 24 26 27 27 26 26 25 23 21 19 19 19 18 18 17 17 17 18 18 17 17 18 19 19 17 18 19 19 18 19 19 19 15 18 20 20 18 19 19 19 18 17 19 23 29 29 29 28 28 28 28 29 29 30 31 31 31 32 32 32 32 32 32 32 32 32 32 32 33 33 33 33 33 33 33 34 34 34 34 34
29 28 27 27 28 29 28 28 27 27 28 27 25 23 21 19 19 19 17 16 16 16 16 18 19 18 17 19 19 19 15 18 19 19 16 17 17 17 16 15 16 16 18 19 18 18 17 16 17 19 27 29 29 28 28 28 28 29 30 30 31 31 31 32 32 32 32 32 32 32 33 33 33 33 33 33 33 33 34 34 34 34 35 35 35 35
31 29 24 23 26 29 31 27 26 28 28 27 26 25 23 22 21 19 17 17 17 19 20 20 19 18 17 18 19 17 14 17 19 19 17 17 17 17 16 15 15 16 18 18 18 17 16 17 17 20 28 30 30 28 28 28 28 28 29 30 30 31 31 32 32 32 32 32 32 32 33 33 33 33 33 33 33 33 34 34 34 34 35 35 35 35
29 27 23 22 23 24 26 23 24 26 27 26 26 26 23 24 23 22 20 19 19 19 18 18 17 17 17 17 17 16 16 17 18 19 18 18 17 16 15 15 16 17 18 18 17 17 17 18 19 22 27 30 30 29 28 28 28 28 29 30 30 31 31 31 31 32 32 32 32 32 32 33 33 33 33 33 33 34 34 34 34 34 34 35 35 35
25 24 23 22 21 22 23 23 23 23 23 22 21 20 19 21 21 20 20 19 19 18 16 16 16 17 17 19 19 17 17 17 17 18 19 18 18 17 15 16 17 18 18 18 17 17 18 19 19 21 24 28 29 30 29 29 28 29 29 29 30 30 30 31 31 32 32 32 32 32 32 32 33 33 33 33 33 34 34 34 34 34 34 35 35 35
26 25 24 24 24 25 26 26 25 24 23 21 21 22 22 23 22 21 19 19 18 18 17 17 18 17 15 19 19 18 17 15 15 17 19 18 16 15 14 15 16 17 17 17 16 16 17 19 20 20 21 23 28 30 31 30 29 29 29 29 29 30 31 31 32 32 32 32 32 32 32 33 33 33 33 33 34 34 34 34 34 34 35 35 35 35
29 29 29 30 31 32 32 31 31 30 28 26 25 24 25 24 23 22 20 19 19 19 19 18 17 15 14 14 15 17 17 14 15 16 18 18 17 16 14 15 15 16 17 16 17 18 19 20 19 19 19 20 25 30 31 30 29 28 28 29 29 30 31 32 32 32 32 32 32 32 32 33 33 33 33 33 34 34 34 34 34 34 34 35 35 35
33 34 34 34 34 34 34 34 33 33 32 31 28 27 25 23 23 22 20 18 18 18 18 16 15 15 14 14 15 16 16 18 17 16 17 18 18 17 15 15 15 15 17 17 18 19 23 23 22 21 19 18 21 26 30 31 30 29 28 28 29 30 31 31 32 32 32 32 32 32 32 32 32 32 32 33 33 33 33 33 34 34 34 34 34 34
35 35 35 35 35 34 34 34 34 34 33 33 32 30 27 24 22 21 19 17 17 17 18 16 15 15 15 14 14 14 14 18 18 17 16 18 18 17 15 14 14 14 15 16 19 21 24 23 21 19 18 18 20 23 28 30 31 30 29 29 29 30 30 31 31 31 31 31 31 31 31 32 32 32 32 32 32 32 32 33 33 33 33 33 32 31
35 35 34 34 34 34 34 34 34 33 33 33 33 32 28 23 21 20 19 17 17 18 18 17 16 15 14 14 14 14 14 17 19 19 17 18 18 16 14 14 13 14 14 15 17 19 19 19 18 16 15 21 23 23 24 28 29 29 30 30 30 30 30 30 30 30 31 31 31 31 31 31 31 32 32 32 32 32 32 32 33 33 33 31 29 28
29 29 29 30 30 30 30 30 31 32 33 33 32 32 29 23 20 19 19 18 19 19 18 17 17 15 14 13 14 15 16 17 18 19 18 19 17 15 13 14 14 13 14 15 16 16 16 18 18 18 18 21 22 21 20 22 24 25 25 27 28 30 31 31 30 30 30 30 30 30 31 31 31 31 31 32 32 32 32 32 33 33 32 29 27 26
22 23 23 21 21 21 22 23 25 28 30 31 31 30 26 21 19 18 19 19 19 18 17 17 16 15 15 15 15 16 16 17 19 19 17 19 17 14 13 14 14 13 13 15 15 15 15 17 19 20 20 19 19 20 21 22 22 22 21 23 25 28 32 32 31 31 30 30 30 30 30 30 30 30 31 31 31 31 31 32 32 32 30 27 26 25
20 20 19 18 17 18 19 20 20 20 23 25 26 26 26 23 20 19 19 19 18 18 17 16 15 15 15 16 17 17 17 16 19 21 19 18 16 14 12 14 14 14 14 14 15 14 14 16 18 19 18 18 18 19 21 23 23 21 21 22 23 25 31 32 32 32 32 32 31 30 30 29 29 29 29 29 30 30 30 31 31 31 29 26 25 25
20 19 17 18 17 17 18 17 17 18 19 19 19 21 23 23 23 22 19 19 18 18 17 16 15 14 14 14 15 16 17 16 19 23 22 18 15 14 12 13 13 13 14 14 14 13 13 14 15 16 16 17 18 19 20 23 23 22 21 22 21 23 26 28 29 29 31 31 31 31 31 30 30 30 29 29 29 29 30 30 30 30 29 26 25 26
20 19 18 17 16 15 16 14 15 17 18 18 18 19 19 21 22 22 21 19 19 19 19 18 17 15 14 13 14 14 16 16 20 25 26 19 15 14 13 13 13 13 13 14 13 12 12 11 12 14 15 17 18 19 19 20 22 22 19 20 20 21 23 24 24 25 26 27 27 27 28 28 29 30 30 30 30 30 29 30 30 30 30 28 27 26
19 19 18 16 16 16 16 15 15 16 17 18 18 19 19 19 19 19 20 19 19 18 18 19 19 18 17 15 15 16 17 17 21 26 28 21 17 15 14 14 14 14 14 13 13 12 12 13 14 14 15 17 18 19 19 18 19 19 19 20 20 20 20 20 21 22 23 23 23 23 23 23 25 27 28 30 30 30 30 30 30 30 30 31 30 28
18 19 17 15 16 17 17 17 17 17 17 17 16 17 18 17 17 18 18 18 19 19 19 19 19 19 19 19 18 18 18 17 20 25 28 22 18 17 16 16 16 15 16 14 13 12 13 14 14 16 17 16 17 18 19 18 18 19 19 19 19 19 19 19 19 19 20 21 22 22 21 22 23 25 27 29 31 31 31 31 31 31 31 31 31 30
18 18 17 14 14 15 17 15 15 16 16 15 15 15 17 15 15 16 14 14 16 19 20 20 20 20 20 19 18 19 18 18 19 22 26 21 19 18 18 17 18 18 17 17 15 14 14 14 15 15 15 15 15 16 18 18 18 18 19 19 19 19 19 19 19 19 19 21 22 22 23 23 24 26 27 30 30 30 31 31 31 31 31 31 31 31
18 18 17 14 13 13 14 14 15 16 17 16 16 16 15 13 13 13 12 10 11 13 16 17 18 19 23 22 19 17 16 17 17 19 20 19 18 19 18 18 19 20 19 18 17 16 15 15 15 15 14 13 14 17 19 18 18 18 18 19 19 19 19 19 19 19 19 21 22 24 26 26 25 25 25 26 27 26 26 26 28 30 31 31 31 30
16 16 16 14 14 13 13 14 15 16 16 16 15 14 13 12 13 12 11 10 10 11 12 14 14 15 16 18 20 21 19 17 15 15 15 15 17 18 19 18 18 18 18 16 16 16 16 15 14 14 14 13 13 14 15 14 14 15 15 17 18 18 18 19 19 19 21 21 22 24 25 23 22 22 21 21 22 22 23 23 25 27 28 27 28 29
16 15 15 17 16 14 12 16 16 15 13 15 17 16 14 14 13 12 12 13 14 13 10 10 12 14 15 19 21 22 22 19 18 16 13 13 15 17 19 19 18 18 17 14 14 15 16 15 15 15 16 14 14 14 14 12 14 16 19 18 18 18 20 20 19 18 19 19 20 21 22 20 19 20 20 19 20 20 21 21 22 24 26 23 22 22
17 16 16 17 18 18 17 17 16 14 13 14 14 14 15 14 14 14 15 16 15 15 14 15 15 15 14 12 13 15 19 18 19 18 12 12 14 16 19 19 19 18 17 14 14 14 17 15 16 16 16 15 15 17 18 16 18 20 22 19 18 19 20 22 22 21 19 19 19 19 21 22 22 23 21 22 21 20 21 20 19 20 23 22 20 19
20 19 17 16 16 14 13 12 13 14 14 13 13 14 14 15 15 14 15 15 14 14 14 15 15 15 14 14 13 11 12 14 17 18 14 12 13 15 17 19 19 19 18 16 14 15 17 18 18 18 17 16 17 18 18 18 19 20 21 20 19 20 22 22 19 15 17 17 16 16 22 21 21 20 21 21 19 19 21 20 21 23 25 21 19 18
21 20 18 16 14 13 14 15 16 16 15 14 14 14 13 14 15 17 17 14 13 14 14 14 14 14 14 13 12 12 11 10 12 16 18 14 13 14 16 17 18 19 19 17 16 16 16 19 20 19 18 18 17 17 18 18 18 19 19 20 20 19 18 17 14 13 14 16 15 15 17 19 19 19 20 21 20 19 19 23 25 28 28 24 21 19
20 19 17 14 12 13 15 15 15 14 14 14 15 15 13 12 14 17 17 13 12 13 13 11 11 11 11 12 12 12 12 10 10 11 16 18 17 15 17 16 17 18 19 19 18 17 15 18 19 19 18 18 18 18 18 17 17 17 17 19 19 19 18 18 16 15 15 17 18 18 16 18 19 18 19 20 20 19 19 19 20 21 26 24 22 21
17 17 15 14 14 15 15 14 14 14 14 15 15 14 13 13 15 17 15 12 12 12 11 11 11 11 10 10 10 10 10 11 11 12 12 18 22 22 19 18 17 18 18 19 19 18 17 17 16 16 16 17 18 18 19 18 18 18 19 20 20 20 20 20 19 19 19 18 18 18 17 18 18 18 18 18 18 18 18 18 18 19 20 21 21 21
16 15 14 14 14 15 17 15 14 14 13 15 15 14 13 12 13 15 16 13 11 10 8 10 11 12 11 11 10 10 10 10 12 14 14 14 15 17 21 20 20 19 19 19 19 19 19 18 16 16 16 16 17 18 19 19 19 18 19 20 19 19 19 19 19 19 18 18 18 18 17 16 16 17 18 18 18 18 17 18 19 19 19 19 19 20
15 14 13 12 13 14 14 14 14 14 14 15 15 14 13 11 11 13 14 13 11 10 10 10 11 11 11 11 10 9 10 11 12 13 14 14 14 15 18 19 20 21 20 19 19 19 19 18 17 17 17 17 17 18 19 18 18 18 18 18 18 17 17 18 18 18 17 18 18 17 16 15 15 16 17 17 18 18 17 18 18 19 19 20 20 20
16 15 14 13 12 12 12 13 13 12 13 14 14 14 13 11 12 12 11 11 12 13 13 10 10 10 11 11 11 12 13 13 13 14 14 14 14 14 17 19 20 21 21 21 21 20 19 19 18 18 18 18 19 19 18 17 17 17 17 17 17 17 18 18 18 17 17 17 16 16 16 16 16 16 16 17 18 18 18 18 18 19 20 21 21 21
15 15 14 13 13 12 12 12 12 12 13 14 14 13 12 14 17 18 13 11 11 12 13 12 11 11 12 11 12 14 16 15 14 14 13 13 12 13 16 19 21 22 22 22 23 23 23 23 22 22 22 21 20 20 19 18 17 17 16 17 17 17 18 18 18 18 17 16 14 13 13 16 17 17 17 17 18 19 19 18 18 18 19 20 21 22
14 14 15 14 14 14 13 13 13 13 14 14 14 13 11 12 14 15 14 13 12 12 13 13 13 13 13 12 13 14 14 14 13 12 12 11 12 13 15 19 21 21 21 21 22 22 23 23 23 24 25 25 23 22 21 20 19 18 18 17 17 17 17 19 19 19 18 17 15 14 13 15 17 18 18 17 18 19 19 19 19 19 19 19 20 22
15 14 14 14 14 14 14 14 14 15 15 15 15 14 13 12 13 13 13 13 13 13 13 13 14 14 15 15 14 15 15 14 14 14 14 12 12 13 15 19 20 20 20 20 20 20 19 18 18 19 22 26 27 25 23 21 20 20 20 18 17 16 16 17 18 19 19 19 18 16 15 16 17 18 18 18 18 19 19 19 19 19 18 17 18 20